(129843) = 1999 RY25

Discovered at Socorro on 1999-09-07 by LINEAR.

Orbit

Orbit type: Main Belt

Note: WebGL enabled browser required.

epoch2023-09-13.0
epoch JD2460200.5
perihelion date2025-01-01.60611
perihelion JD2460677.10611
argument of perihelion (°)17.38464
ascending node (°)16.33552
inclination (°)5.12444
eccentricity0.2519574
perihelion distance (AU)1.9408985
Tisserand w.r.t. Jupiter3.4
ΔV w.r.t. Earth (km/sec)8.9
semimajor axis (AU)2.5946364
mean anomaly (°)247.60456
mean daily motion (°/day)0.23582460
aphelion distance (AU)3.248
period (years)4.18
P-vector [x]0.83209472
P-vector [y]0.49766135
P-vector [z]0.24485006
Q-vector [x]-0.55406431
Q-vector [y]0.72585932
Q-vector [z]0.40760397
absolute magnitude16.35
phase slope0.15
uncertainty0
referenceMPEC 2023-N34
observations used698
oppositions14
arc length (days)10087
first opposition used1995
last opposition used2023
residual rms (arc-secs)0.64
perturbers coarse indicatorM-v
perturbers precise indicator003Ek
first observation date used1995-11-24.0
last observation date used2023-07-07.0
computer nameMPCLINUX
JD of orbit computation2456789.316865
perihelion JD uncertainty (days)8.3068E-05
argument of perihelion uncertainty (°)6.4961E-05
ascending node uncertainty (°)6.2346E-05
inclination uncertainty (°)6.1260E-06
eccentricity uncertainty 5.7228E-08
perihelion distance uncertainty (AU)1.4191E-07
Minimum Orbit Intersection Distances (in AU)
for orbit epoch: 2460000.5, reference: E2023-N34
Mercury1.61421
Venus1.22007
Earth0.94676
Mars0.49103
Jupiter2.1952
Saturn6.45691
Uranus15.3304
Neptune27.488

Observations

705 total observations over interval: 1995 11 24.29102 – 2023 07 07.348940
These data are available for download (format description).

Date (UT) J2000 RA J2000 Dec Magn Location Ref
1995 11 24.29102 02 57 31.43 +23 30 45.5   691 – Steward Observatory, Kitt Peak-Spacewatch MPS 83191
1995 11 24.31361 02 57 30.19 +23 30 43.7 18.3 V 691 – Steward Observatory, Kitt Peak-Spacewatch MPS 83191
1995 11 24.33608 02 57 29.02 +23 30 41.9   691 – Steward Observatory, Kitt Peak-Spacewatch MPS 83191
1999 09 04.35014 00 47 38.74 +01 31 53.7 18.4 R 699 – Lowell Observatory-LONEOS MPS 81860
1999 09 04.37568 00 47 38.14 +01 31 54.6   699 – Lowell Observatory-LONEOS MPS 81860
1999 09 04.40125 00 47 37.42 +01 31 54.6   699 – Lowell Observatory-LONEOS MPS 81860
1999 09 07.40427 00 46 20.05 +01 32 28.5 18.3   704 – Lincoln Laboratory ETS, New Mexico MPS 6167
1999 09 07.41565 00 46 19.72 +01 32 28.8 18.9   704 – Lincoln Laboratory ETS, New Mexico MPS 6167
1999 09 07.42705 00 46 19.38 +01 32 28.7 19.0   704 – Lincoln Laboratory ETS, New Mexico MPS 6168
1999 09 07.44969 00 46 18.63 +01 32 28.6 19.3   704 – Lincoln Laboratory ETS, New Mexico MPS 6168
1999 09 08.34115 00 45 52.81 +01 32 26.5 18.3   704 – Lincoln Laboratory ETS, New Mexico MPS 6168
1999 09 08.35476 00 45 52.31 +01 32 26.4 17.8   704 – Lincoln Laboratory ETS, New Mexico MPS 6168
1999 09 08.36835 00 45 51.88 +01 32 26.8 17.8   704 – Lincoln Laboratory ETS, New Mexico MPS 6168
1999 09 08.38204 00 45 51.45 +01 32 26.5 18.3   704 – Lincoln Laboratory ETS, New Mexico MPS 6168
1999 09 14.26239 00 42 25.10 +01 30 10.3 18.5   704 – Lincoln Laboratory ETS, New Mexico MPS 13616
1999 09 14.27514 00 42 24.55 +01 30 09.5 19.0   704 – Lincoln Laboratory ETS, New Mexico MPS 13616
1999 09 14.28783 00 42 23.93 +01 30 08.7 19.9   704 – Lincoln Laboratory ETS, New Mexico MPS 13616
1999 09 14.30063 00 42 23.43 +01 30 08.6 18.8   704 – Lincoln Laboratory ETS, New Mexico MPS 13616
1999 09 14.31349 00 42 22.85 +01 30 08.2 19.6   704 – Lincoln Laboratory ETS, New Mexico MPS 13616
1999 09 30.26745 00 29 27.93 +01 13 19.6 17.6 R 703 – Catalina Sky Survey MPS 13616
1999 09 30.27990 00 29 27.22 +01 13 18.8 17.7 R 703 – Catalina Sky Survey MPS 13616
1999 09 30.29228 00 29 26.50 +01 13 18.1 17.8 R 703 – Catalina Sky Survey MPS 13616
1999 09 30.30468 00 29 25.75 +01 13 16.9 17.6 R 703 – Catalina Sky Survey MPS 13616
1999 10 02.31720 00 27 36.78 +01 10 54.4 18.2 R 699 – Lowell Observatory-LONEOS MPS 13616
1999 10 02.34777 00 27 34.93 +01 10 54.0   699 – Lowell Observatory-LONEOS MPS 13616
1999 10 02.35029 00 27 34.81 +01 10 54.2 18.3   704 – Lincoln Laboratory ETS, New Mexico MPS 13616
1999 10 02.36370 00 27 34.01 +01 10 52.5 18.4   704 – Lincoln Laboratory ETS, New Mexico MPS 13616
1999 10 02.37708 00 27 33.31 +01 10 51.2 18.7   704 – Lincoln Laboratory ETS, New Mexico MPS 13616
1999 10 02.37837 00 27 33.26 +01 10 51.6   699 – Lowell Observatory-LONEOS MPS 13616
1999 10 02.39053 00 27 32.58 +01 10 49.9 19.2   704 – Lincoln Laboratory ETS, New Mexico MPS 13616
1999 10 02.40391 00 27 31.73 +01 10 49.3 19.0   704 – Lincoln Laboratory ETS, New Mexico MPS 13616
1999 10 07.27756 00 23 09.62 +01 05 47.4 18.2 R 703 – Catalina Sky Survey MPS 13616
1999 10 07.28987 00 23 09.03 +01 05 46.7 18.1 R 703 – Catalina Sky Survey MPS 13616
1999 10 07.30207 00 23 08.25 +01 05 45.8 18.2 R 703 – Catalina Sky Survey MPS 13616
1999 10 07.31034 00 23 07.83 +01 05 45.6 18.8   704 – Lincoln Laboratory ETS, New Mexico MPS 13616
1999 10 07.32089 00 23 07.19 +01 05 44.9 18.7   704 – Lincoln Laboratory ETS, New Mexico MPS 13616
1999 10 07.33162 00 23 06.57 +01 05 43.6 19.2   704 – Lincoln Laboratory ETS, New Mexico MPS 13616
1999 10 07.34211 00 23 05.98 +01 05 43.0 19.5   704 – Lincoln Laboratory ETS, New Mexico MPS 13616
1999 10 09.17697 00 21 30.01 +01 04 12.6 18.0   704 – Lincoln Laboratory ETS, New Mexico MPS 13616
1999 10 09.19309 00 21 29.13 +01 04 12.2 18.1   704 – Lincoln Laboratory ETS, New Mexico MPS 13616
1999 10 09.20855 00 21 28.29 +01 04 11.2 18.2   704 – Lincoln Laboratory ETS, New Mexico MPS 13616
1999 10 09.22396 00 21 27.46 +01 04 10.8 18.2   704 – Lincoln Laboratory ETS, New Mexico MPS 13616
1999 10 09.23941 00 21 26.59 +01 04 09.9 18.5   704 – Lincoln Laboratory ETS, New Mexico MPS 13616
1999 10 15.17952 00 16 33.29 +01 01 20.0 18.5   704 – Lincoln Laboratory ETS, New Mexico MPS 13616
1999 10 15.19684 00 16 32.47 +01 01 20.1 18.9   704 – Lincoln Laboratory ETS, New Mexico MPS 13616
1999 10 15.21256 00 16 31.69 +01 01 20.2 19.3   704 – Lincoln Laboratory ETS, New Mexico MPS 13616
1999 10 15.22878 00 16 30.84 +01 01 19.9 19.1   704 – Lincoln Laboratory ETS, New Mexico MPS 13616
1999 10 15.24681 00 16 29.95 +01 01 19.6 18.8   704 – Lincoln Laboratory ETS, New Mexico MPS 13616
1999 11 03.15810 00 06 41.31 +01 23 57.9 18.4 R 703 – Catalina Sky Survey MPS 13616
1999 11 03.17442 00 06 41.11 +01 24 00.8 18.1 R 703 – Catalina Sky Survey MPS 13616
1999 11 03.19074 00 06 40.88 +01 24 02.7 18.7 R 703 – Catalina Sky Survey MPS 13616
1999 11 03.20704 00 06 40.50 +01 24 05.5 18.8 R 703 – Catalina Sky Survey MPS 13616
1999 11 16.07578 00 06 44.86 +02 13 03.6 18.1   704 – Lincoln Laboratory ETS, New Mexico MPS 13616
1999 11 16.09080 00 06 44.99 +02 13 08.7 18.8   704 – Lincoln Laboratory ETS, New Mexico MPS 13616
1999 11 16.12093 00 06 45.40 +02 13 18.1 19.0   704 – Lincoln Laboratory ETS, New Mexico MPS 13616
1999 12 07.10116 00 18 41.48 +04 29 23.2 19.9   704 – Lincoln Laboratory ETS, New Mexico MPS 13616
1999 12 07.11734 00 18 42.26 +04 29 31.2 19.6   704 – Lincoln Laboratory ETS, New Mexico MPS 13616
1999 12 07.13414 00 18 43.13 +04 29 38.5 19.5   704 – Lincoln Laboratory ETS, New Mexico MPS 13616
2003 07 08.43498 22 41 28.95 -15 41 49.3 19.4   644 – Palomar Mountain/NEAT MPS 82364
2003 07 08.45664 22 41 29.16 -15 41 49.8 19.5   644 – Palomar Mountain/NEAT MPS 82364
2003 07 08.48062 22 41 29.39 -15 41 50.5 19.4   644 – Palomar Mountain/NEAT MPS 82364
2003 07 25.33360 22 40 36.53 -16 08 57.5 18.5   644 – Palomar Mountain/NEAT MPS 82364
2003 07 25.36770 22 40 35.85 -16 09 03.3 19.0   644 – Palomar Mountain/NEAT MPS 82364
2003 07 25.40067 22 40 35.19 -16 09 08.7 18.5   644 – Palomar Mountain/NEAT MPS 82364
2003 08 02.52065 22 37 07.59 -16 34 01.3 20.3   608 – Haleakala-AMOS MPS 82601
2003 08 02.53092 22 37 07.23 -16 34 03.5 20.1   608 – Haleakala-AMOS MPS 82601
2003 08 02.54139 22 37 06.90 -16 34 05.6 20.4   608 – Haleakala-AMOS MPS 82601
2003 08 22.36871 22 21 49.02 -17 46 16.9 20.0   608 – Haleakala-AMOS MPS 83191
2003 08 22.37947 22 21 48.43 -17 46 19.2 19.7   608 – Haleakala-AMOS MPS 83191
2003 08 22.39018 22 21 47.73 -17 46 21.4 19.6   608 – Haleakala-AMOS MPS 83191
2003 08 23.22516 22 21 00.53 -17 49 09.0 18.1   644 – Palomar Mountain/NEAT MPS 83191
2003 08 23.24666 22 20 59.23 -17 49 13.3 18.1   644 – Palomar Mountain/NEAT MPS 83191
2003 08 23.26818 22 20 57.95 -17 49 17.6 18.2   644 – Palomar Mountain/NEAT MPS 83191
2003 08 23.28620 22 20 56.83 -17 49 21.6 18.5   704 – Lincoln Laboratory ETS, New Mexico MPS 83191
2003 08 23.32410 22 20 54.59 -17 49 29.3 19.0   704 – Lincoln Laboratory ETS, New Mexico MPS 83191
2003 08 23.33658 22 20 53.84 -17 49 32.0 19.1   704 – Lincoln Laboratory ETS, New Mexico MPS 83191
2003 08 28.55240 22 15 52.19 -18 05 25.5 20.5   608 – Haleakala-AMOS MPS 83191
2003 08 28.56321 22 15 51.53 -18 05 27.8 20.1   608 – Haleakala-AMOS MPS 83191
2003 08 28.57367 22 15 50.87 -18 05 28.7 19.9   608 – Haleakala-AMOS MPS 83191
2003 08 29.42590 22 15 01.68 -18 07 46.6 19.1 g 568 – Maunakea MPS 195195
2003 08 29.43124 22 15 01.35 -18 07 47.4 19.1 g 568 – Maunakea MPS 195195
2003 08 29.43659 22 15 01.02 -18 07 48.3 19.1 g 568 – Maunakea MPS 195195
2003 08 29.44116 22 15 00.75 -18 07 49.0 18.5 r 568 – Maunakea MPS 195195
2003 08 29.45070 22 15 00.16 -18 07 50.5 18.5 r 568 – Maunakea MPS 195195
2003 08 29.46022 22 14 59.58 -18 07 52.0 18.5 r 568 – Maunakea MPS 195195
2003 08 30.35150 22 14 08.11 -18 10 10.0 18.3 i 568 – Maunakea MPS 195195
2003 08 30.37598 22 14 06.62 -18 10 14.5 19.6   608 – Haleakala-AMOS MPS 83908
2003 08 30.37804 22 14 06.49 -18 10 14.1 18.3 i 568 – Maunakea MPS 195195
2003 08 30.38666 22 14 05.97 -18 10 16.2 19.4   608 – Haleakala-AMOS MPS 83908
2003 08 30.39707 22 14 05.34 -18 10 18.0 19.6   608 – Haleakala-AMOS MPS 83908
2003 08 31.26433 22 13 15.09 -18 12 26.5 18.5   704 – Lincoln Laboratory ETS, New Mexico MPS 83908
